Skip Page Navigation
NASA JPL Caltech
NASA Logo - Jet Propulsion Laboratory + View the NASA Portal
+ Near-Earth Object (NEO) Program
Search JPL
JPL Home Earth Solar System Stars & Galaxies Technology
JPL Solar System Dynamics
BODIES ORBITS EPHEMERIDES TOOLS PHYSICAL DATA DISCOVERY FAQ SITE MAP
JPL Small-Body Database Browser
Search: [ help ]  
256874 (2008 DD17)
Classification: Main-belt Asteroid          SPK-ID: 2256874
Ephemeris | Orbit Diagram | Orbital Elements | Physical Parameters | Discovery Circumstances ]

[ hide orbit diagram ]
Orbit Diagram
Note: Make sure you have Java enabled on your browser to see the applet. This applet is provided as a 3D orbit visualization tool. The applet was implemented using 2-body methods, and hence should not be used for determining accurate long-term trajectories (over several years or decades) or planetary encounter circumstances. For accurate long-term ephemerides, please instead use our Horizons system.
Orbit Viewer

Additional Notes: the orbits shown in the applet are color coded. The planets are white lines, and the asteroid/comet is a blue line. The bright white line indicates the portion of the orbit that is above the ecliptic plane, and the darker portion is below the ecliptic plane. Likewise for the asteroid/comet orbit, the light blue indicates the portion above the ecliptic plane, and the dark blue the portion below the ecliptic plane.

Orbit Viewer applet originally written and kindly provided by Osamu Ajiki (AstroArts), and further modified by Ron Baalke (JPL).


Orbital Elements at Epoch 2456400.5 (2013-Apr-18.0) TDB
Reference: JPL 1 (heliocentric ecliptic J2000)
 Element Value Uncertainty (1-sigma)   Units 
e .0618063160213175 1.1957e-07  
a 2.804828680130322 7.9967e-08 AU
q 2.631472552340533 3.4678e-07 AU
i 3.750118657312973 1.7242e-05 deg
node 355.0235421588247 0.0001499 deg
peri 142.4939505151386 0.00021399 deg
M 67.70548979668706 0.0001493 deg
tp 2456077.814597334081
(2012-May-30.31459733)
0.00070741 JED
period 1715.765520766017
4.70
7.3376e-05
2.009e-07
d
yr
n .2098188800526049 8.973e-09 deg/d
Q 2.978184807920112 8.4909e-08 AU
  Orbit Determination Parameters
   # obs. used (total)      130  
   data-arc span      3731 days (10.21 yr)  
   first obs. used      2003-01-28  
   last obs. used      2013-04-16  
   planetary ephem.      DE405  
   SB-pert. ephem.      SB405-CPV-2  
   condition code      0  
   fit RMS      .64998  
   data source      ORB  
   producer      Otto Matic  
   solution date      2013-Apr-29 22:19:52  

Additional Information
 Earth MOID = 1.64559 AU 
 T_jup = 3.318 
[ show covariance matrix ]

Ephemeris | Orbit Diagram | Orbital Elements | Physical Parameters | Discovery Circumstances ]

Physical Parameter Table
Parameter Symbol Value Units Sigma Reference Notes
absolute magnitude H 16.506 mag .54846 1 autocmod 2.5c

256874 (2008 DD17)          Discovered 2008-Feb-28 by Calvin College at Calvin-Rehoboth (G98)
Reference: 20101128/Numbers.arcLast Updated: 2010-12-06
Ephemeris | Orbit Diagram | Orbital Elements | Physical Parameters | Discovery Circumstances ]
ABOUT SSD CREDITS/AWARDS PRIVACY/COPYRIGHT GLOSSARY LINKS
FirstGov 2013-May-22 08:47 UT
(server date/time)  
NASA Home Page
Site Manager:   Donald K. Yeomans
Webmaster  Alan B. Chamberlin